Time,TemperatureF,DewpointF,PressureIn,WindDirection,WindDirectionDegrees,WindSpeedMPH,WindSpeedGustMPH,Humidity,HourlyPrecipIn,Conditions,Clouds,dailyrainin,SoftwareType,DateUTC
2013-02-21 00:03:00,27.0,-99.9,30.17,WNW,293,9.0,21.0,-999,-99.99,,,-99.99,,2013-02-21 05:03:00,
2013-02-21 00:12:00,27.0,-99.9,30.17,WNW,293,9.0,21.0,-999,-99.99,,,-99.99,,2013-02-21 05:12:00,
2013-02-21 00:22:00,27.0,-99.9,30.17,WNW,293,9.0,21.0,-999,-99.99,,,-99.99,,2013-02-21 05:22:00,
2013-02-21 01:42:00,27.0,-99.9,30.15,NW,319,11.0,16.0,-999,-99.99,,,-99.99,,2013-02-21 06:42:00,
2013-02-21 01:52:00,-999.0,-99.9,30.15,West,280,12.0,15.0,-999,-99.99,,,-99.99,,2013-02-21 06:52:00,
2013-02-21 02:01:00,26.0,-99.9,30.15,NW,308,8.0,11.0,-999,-99.99,,,-99.99,,2013-02-21 07:01:00,
2013-02-21 02:11:00,26.0,-99.9,30.15,North,-999,-999.0,-999.0,-999,-99.99,,,-99.99,,2013-02-21 07:11:00,
2013-02-21 02:22:00,-999.0,-99.9,30.15,NW,311,10.0,13.0,-999,-99.99,,,-99.99,,2013-02-21 07:22:00,
2013-02-21 02:32:00,26.0,-99.9,30.15,NW,306,10.0,17.0,-999,-99.99,,,-99.99,,2013-02-21 07:32:00,
2013-02-21 02:42:00,26.0,-99.9,30.15,WNW,300,10.0,11.0,-999,-99.99,,,-99.99,,2013-02-21 07:42:00,
2013-02-21 02:52:00,26.0,-99.9,30.15,North,-999,-999.0,-999.0,-999,-99.99,,,-99.99,,2013-02-21 07:52:00,
2013-02-21 03:02:00,26.0,-99.9,30.15,WNW,303,10.0,13.0,-999,-99.99,,,-99.99,,2013-02-21 08:02:00,
2013-02-21 03:11:00,26.0,-99.9,30.16,North,-999,-999.0,-999.0,-999,-99.99,,,-99.99,,2013-02-21 08:11:00,
2013-02-21 03:21:00,-999.0,-99.9,30.15,WNW,303,14.0,16.0,-999,-99.99,,,-99.99,,2013-02-21 08:21:00,
2013-02-21 03:32:00,26.0,-99.9,30.14,WNW,294,9.0,17.0,-999,-99.99,,,-99.99,,2013-02-21 08:32:00,
2013-02-21 03:42:00,-999.0,-99.9,30.14,WNW,291,8.0,12.0,-999,-99.99,,,-99.99,,2013-02-21 08:42:00,
2013-02-21 03:52:00,-999.0,-99.9,30.14,WNW,297,10.0,13.0,-999,-99.99,,,-99.99,,2013-02-21 08:52:00,
2013-02-21 04:02:00,26.0,-99.9,30.14,WNW,291,7.0,12.0,-999,-99.99,,,-99.99,,2013-02-21 09:02:00,
2013-02-21 04:11:00,26.0,-99.9,30.15,WNW,296,8.0,11.0,-999,-99.99,,,-99.99,,2013-02-21 09:11:00,
2013-02-21 04:22:00,-999.0,-99.9,30.14,NW,312,9.0,13.0,-999,-99.99,,,-99.99,,2013-02-21 09:22:00,
2013-02-21 04:32:00,26.0,-99.9,30.15,WNW,302,9.0,12.0,-999,-99.99,,,-99.99,,2013-02-21 09:32:00,
2013-02-21 04:42:00,26.0,-99.9,30.16,WNW,288,11.0,14.0,-999,-99.99,,,-99.99,,2013-02-21 09:42:00,
2013-02-21 04:52:00,-999.0,-99.9,30.16,WNW,296,9.0,14.0,-999,-99.99,,,-99.99,,2013-02-21 09:52:00,
2013-02-21 05:01:00,-999.0,-99.9,30.16,WNW,296,9.0,14.0,-999,-99.99,,,-99.99,,2013-02-21 10:01:00,
2013-02-21 05:11:00,-999.0,-99.9,30.16,WNW,296,9.0,14.0,-999,-99.99,,,-99.99,,2013-02-21 10:11:00,
2013-02-21 05:21:00,-999.0,-99.9,30.16,WNW,296,9.0,14.0,-999,-99.99,,,-99.99,,2013-02-21 10:21:00,
2013-02-21 06:21:00,26.0,-99.9,30.16,North,-999,-999.0,-999.0,-999,-99.99,,,-99.99,,2013-02-21 11:21:00,
2013-02-21 06:31:00,26.0,-99.9,30.16,NW,310,11.0,15.0,-999,-99.99,,,-99.99,,2013-02-21 11:31:00,
2013-02-21 06:42:00,26.0,-99.9,30.16,North,-999,-999.0,-999.0,-999,-99.99,,,-99.99,,2013-02-21 11:42:00,
2013-02-21 06:52:00,26.0,-99.9,30.16,North,-999,-999.0,-999.0,-999,-99.99,,,-99.99,,2013-02-21 11:52:00,
2013-02-21 07:01:00,26.0,-99.9,30.17,WNW,301,8.0,15.0,-999,-99.99,,,-99.99,,2013-02-21 12:01:00,
2013-02-21 07:11:00,26.0,-99.9,30.17,North,-999,-999.0,-999.0,-999,-99.99,,,-99.99,,2013-02-21 12:11:00,
2013-02-21 07:22:00,-999.0,-99.9,30.18,NW,314,7.0,10.0,-999,-99.99,,,-99.99,,2013-02-21 12:22:00,
2013-02-21 07:32:00,27.0,-99.9,30.19,NW,315,12.0,14.0,-999,-99.99,,,-99.99,,2013-02-21 12:32:00,
2013-02-21 07:43:00,27.0,-99.9,30.19,NW,305,9.0,13.0,-999,-99.99,,,-99.99,,2013-02-21 12:43:00,
2013-02-21 07:53:00,27.0,-99.9,30.19,North,-999,-999.0,-999.0,-999,-99.99,,,-99.99,,2013-02-21 12:53:00,
2013-02-21 08:02:00,27.0,-99.9,30.19,NW,313,10.0,13.0,-999,-99.99,,,-99.99,,2013-02-21 13:02:00,
2013-02-21 08:12:00,27.0,-99.9,30.19,North,-999,-999.0,-999.0,-999,-99.99,,,-99.99,,2013-02-21 13:12:00,
2013-02-21 08:22:00,-999.0,-99.9,30.19,NW,318,13.0,18.0,-999,-99.99,,,-99.99,,2013-02-21 13:22:00,
2013-02-21 08:32:00,28.0,-99.9,30.20,NW,314,12.0,21.0,-999,-99.99,,,-99.99,,2013-02-21 13:32:00,
2013-02-21 08:42:00,28.0,-99.9,30.20,North,-999,-999.0,-999.0,-999,-99.99,,,-99.99,,2013-02-21 13:42:00,
2013-02-21 08:52:00,-999.0,-99.9,30.20,NW,320,14.0,20.0,-999,-99.99,,,-99.99,,2013-02-21 13:52:00,
2013-02-21 09:02:00,29.0,-99.9,30.20,NW,321,20.0,25.0,-999,-99.99,,,-99.99,,2013-02-21 14:02:00,
2013-02-21 09:11:00,29.0,-99.9,30.22,NW,325,18.0,26.0,-999,-99.99,,,-99.99,,2013-02-21 14:11:00,
2013-02-21 09:22:00,29.0,-99.9,30.21,North,-999,-999.0,-999.0,-999,-99.99,,,-99.99,,2013-02-21 14:22:00,
2013-02-21 09:32:00,29.0,-99.9,30.21,NW,313,19.0,24.0,-999,-99.99,,,-99.99,,2013-02-21 14:32:00,
2013-02-21 09:42:00,-999.0,-99.9,30.21,NW,314,11.0,19.0,-999,-99.99,,,-99.99,,2013-02-21 14:42:00,
2013-02-21 09:52:00,-999.0,-99.9,30.21,WNW,299,15.0,21.0,-999,-99.99,,,-99.99,,2013-02-21 14:52:00,
2013-02-21 10:02:00,30.0,-99.9,30.22,NNW,329,17.0,22.0,-999,-99.99,,,-99.99,,2013-02-21 15:02:00,
2013-02-21 10:12:00,-999.0,-99.9,30.21,NNW,330,10.0,20.0,-999,-99.99,,,-99.99,,2013-02-21 15:12:00,
2013-02-21 10:22:00,30.0,-99.9,30.21,North,-999,-999.0,-999.0,-999,-99.99,,,-99.99,,2013-02-21 15:22:00,
2013-02-21 10:32:00,31.0,-99.9,30.22,NNW,332,15.0,24.0,-999,-99.99,,,-99.99,,2013-02-21 15:32:00,
2013-02-21 10:42:00,31.0,-99.9,30.22,NW,324,12.0,27.0,-999,-99.99,,,-99.99,,2013-02-21 15:42:00,
2013-02-21 10:52:00,31.0,-99.9,30.23,North,-999,-999.0,-999.0,-999,-99.99,,,-99.99,,2013-02-21 15:52:00,
2013-02-21 11:02:00,31.0,-99.9,30.24,NW,313,15.0,24.0,-999,-99.99,,,-99.99,,2013-02-21 16:02:00,
2013-02-21 11:12:00,31.0,-99.9,30.23,NW,306,17.0,22.0,-999,-99.99,,,-99.99,,2013-02-21 16:12:00,
2013-02-21 11:22:00,31.0,-99.9,30.23,North,-999,-999.0,-999.0,-999,-99.99,,,-99.99,,2013-02-21 16:22:00,
2013-02-21 11:32:00,31.0,-99.9,30.22,NW,321,16.0,24.0,-999,-99.99,,,-99.99,,2013-02-21 16:32:00,
2013-02-21 11:42:00,-999.0,-99.9,30.21,NNW,336,11.0,18.0,-999,-99.99,,,-99.99,,2013-02-21 16:42:00,
2013-02-21 11:52:00,-999.0,-99.9,30.21,NW,313,16.0,21.0,-999,-99.99,,,-99.99,,2013-02-21 16:52:00,
2013-02-21 12:02:00,33.0,-99.9,30.21,WNW,299,13.0,20.0,-999,-99.99,,,-99.99,,2013-02-21 17:02:00,
2013-02-21 12:12:00,32.0,-99.9,30.21,North,-999,-999.0,-999.0,-999,-99.99,,,-99.99,,2013-02-21 17:12:00,
2013-02-21 12:22:00,33.0,-99.9,30.21,North,-999,-999.0,-999.0,-999,-99.99,,,-99.99,,2013-02-21 17:22:00,
2013-02-21 12:32:00,33.0,-99.9,30.21,NW,315,19.0,23.0,-999,-99.99,,,-99.99,,2013-02-21 17:32:00,
2013-02-21 12:42:00,33.0,-99.9,30.20,NW,307,10.0,22.0,-999,-99.99,,,-99.99,,2013-02-21 17:42:00,
2013-02-21 12:52:00,-999.0,-99.9,30.20,NW,310,9.0,21.0,-999,-99.99,,,-99.99,,2013-02-21 17:52:00,
2013-02-21 13:02:00,34.0,-99.9,30.21,NW,321,16.0,22.0,-999,-99.99,,,-99.99,,2013-02-21 18:02:00,
2013-02-21 13:12:00,-999.0,-99.9,30.21,NW,311,19.0,24.0,-999,-99.99,,,-99.99,,2013-02-21 18:12:00,
2013-02-21 13:22:00,34.0,-99.9,30.20,North,-999,-999.0,-999.0,-999,-99.99,,,-99.99,,2013-02-21 18:22:00,
2013-02-21 13:32:00,34.0,-99.9,30.20,North,-999,-999.0,-999.0,-999,-99.99,,,-99.99,,2013-02-21 18:32:00,
2013-02-21 13:42:00,-999.0,-99.9,30.19,NW,315,18.0,22.0,-999,-99.99,,,-99.99,,2013-02-21 18:42:00,
2013-02-21 13:52:00,35.0,-99.9,30.18,North,-999,-999.0,-999.0,-999,-99.99,,,-99.99,,2013-02-21 18:52:00,
2013-02-21 14:02:00,36.0,-99.9,30.17,NW,322,14.0,23.0,-999,-99.99,,,-99.99,,2013-02-21 19:02:00,
2013-02-21 14:12:00,36.0,-99.9,30.17,WNW,291,14.0,20.0,-999,-99.99,,,-99.99,,2013-02-21 19:12:00,
2013-02-21 14:22:00,36.0,-99.9,30.17,North,-999,-999.0,-999.0,-999,-99.99,,,-99.99,,2013-02-21 19:22:00,
2013-02-21 14:32:00,36.0,-99.9,30.17,NW,310,17.0,24.0,-999,-99.99,,,-99.99,,2013-02-21 19:32:00,
2013-02-21 14:42:00,-999.0,-99.9,30.17,WNW,298,14.0,20.0,-999,-99.99,,,-99.99,,2013-02-21 19:42:00,
2013-02-21 14:52:00,-999.0,-99.9,30.17,WNW,298,14.0,20.0,-999,-99.99,,,-99.99,,2013-02-21 19:52:00,
2013-02-21 15:01:00,37.0,-99.9,30.18,North,-999,-999.0,-999.0,-999,-99.99,,,-99.99,,2013-02-21 20:01:00,
2013-02-21 15:11:00,37.0,-99.9,30.17,North,-999,-999.0,-999.0,-999,-99.99,,,-99.99,,2013-02-21 20:11:00,
2013-02-21 15:22:00,-999.0,-99.9,30.17,NNW,335,12.0,24.0,-999,-99.99,,,-99.99,,2013-02-21 20:22:00,
2013-02-21 15:32:00,38.0,-99.9,30.17,NW,308,18.0,21.0,-999,-99.99,,,-99.99,,2013-02-21 20:32:00,
2013-02-21 15:42:00,38.0,-99.9,30.18,NW,308,13.0,25.0,-999,-99.99,,,-99.99,,2013-02-21 20:42:00,
2013-02-21 15:53:00,38.0,-99.9,30.17,North,-999,-999.0,-999.0,-999,-99.99,,,-99.99,,2013-02-21 20:53:00,
2013-02-21 16:02:00,38.0,-99.9,30.18,NW,323,17.0,21.0,-999,-99.99,,,-99.99,,2013-02-21 21:02:00,
2013-02-21 16:12:00,38.0,-99.9,30.18,North,-999,-999.0,-999.0,-999,-99.99,,,-99.99,,2013-02-21 21:12:00,
2013-02-21 16:22:00,38.0,-99.9,30.18,North,-999,-999.0,-999.0,-999,-99.99,,,-99.99,,2013-02-21 21:22:00,
2013-02-21 16:32:00,38.0,-99.9,30.17,NW,326,14.0,23.0,-999,-99.99,,,-99.99,,2013-02-21 21:32:00,
2013-02-21 16:42:00,39.0,-99.9,30.17,North,-999,-999.0,-999.0,-999,-99.99,,,-99.99,,2013-02-21 21:42:00,
2013-02-21 16:52:00,-999.0,-99.9,30.18,NW,315,16.0,19.0,-999,-99.99,,,-99.99,,2013-02-21 21:52:00,
2013-02-21 17:02:00,38.0,-99.9,30.18,NW,316,13.0,18.0,-999,-99.99,,,-99.99,,2013-02-21 22:02:00,
2013-02-21 17:11:00,39.0,-99.9,30.19,North,355,9.0,17.0,-999,-99.99,,,-99.99,,2013-02-21 22:11:00,
2013-02-21 17:22:00,-999.0,-99.9,30.20,NW,321,15.0,24.0,-999,-99.99,,,-99.99,,2013-02-21 22:22:00,
2013-02-21 17:32:00,39.0,-99.9,30.20,North,359,13.0,20.0,-999,-99.99,,,-99.99,,2013-02-21 22:32:00,
2013-02-21 17:42:00,-999.0,-99.9,30.21,NNW,334,10.0,17.0,-999,-99.99,,,-99.99,,2013-02-21 22:42:00,
2013-02-21 17:52:00,-999.0,-99.9,30.22,NNW,337,15.0,19.0,-999,-99.99,,,-99.99,,2013-02-21 22:52:00,
2013-02-21 18:01:00,37.0,-99.9,30.24,NW,314,11.0,18.0,-999,-99.99,,,-99.99,,2013-02-21 23:01:00,
2013-02-21 18:11:00,37.0,-99.9,30.24,North,-999,-999.0,-999.0,-999,-99.99,,,-99.99,,2013-02-21 23:11:00,
2013-02-21 18:22:00,37.0,-99.9,30.24,North,-999,-999.0,-999.0,-999,-99.99,,,-99.99,,2013-02-21 23:22:00,
2013-02-21 18:32:00,37.0,-99.9,30.24,NW,318,10.0,16.0,-999,-99.99,,,-99.99,,2013-02-21 23:32:00,
2013-02-21 18:42:00,37.0,-99.9,30.24,NW,324,17.0,21.0,-999,-99.99,,,-99.99,,2013-02-21 23:42:00,
2013-02-21 18:53:00,-999.0,-99.9,30.25,NNW,328,14.0,21.0,-999,-99.99,,,-99.99,,2013-02-21 23:53:00,
2013-02-21 19:02:00,36.0,-99.9,30.26,NNW,330,10.0,19.0,-999,-99.99,,,-99.99,,2013-02-22 00:02:00,
2013-02-21 19:11:00,-999.0,-99.9,30.26,NNW,336,8.0,14.0,-999,-99.99,,,-99.99,,2013-02-22 00:11:00,
2013-02-21 19:22:00,-999.0,-99.9,30.27,NNW,338,8.0,20.0,-999,-99.99,,,-99.99,,2013-02-22 00:22:00,
2013-02-21 19:32:00,36.0,-99.9,30.28,NNW,333,10.0,15.0,-999,-99.99,,,-99.99,,2013-02-22 00:32:00,
2013-02-21 19:42:00,36.0,-99.9,30.28,North,-999,-999.0,-999.0,-999,-99.99,,,-99.99,,2013-02-22 00:42:00,
2013-02-21 19:52:00,-999.0,-99.9,30.29,NW,323,16.0,18.0,-999,-99.99,,,-99.99,,2013-02-22 00:52:00,
2013-02-21 20:01:00,35.0,-99.9,30.29,NNW,342,9.0,19.0,-999,-99.99,,,-99.99,,2013-02-22 01:01:00,
2013-02-21 20:11:00,35.0,-99.9,30.30,NNW,339,6.0,12.0,-999,-99.99,,,-99.99,,2013-02-22 01:11:00,
2013-02-21 20:22:00,35.0,-99.9,30.30,North,-999,-999.0,-999.0,-999,-99.99,,,-99.99,,2013-02-22 01:22:00,
2013-02-21 20:32:00,35.0,-99.9,30.29,NNW,336,9.0,16.0,-999,-99.99,,,-99.99,,2013-02-22 01:32:00,
2013-02-21 20:42:00,35.0,-99.9,30.29,North,-999,-999.0,-999.0,-999,-99.99,,,-99.99,,2013-02-22 01:42:00,
2013-02-21 20:52:00,-999.0,-99.9,30.30,NNW,334,9.0,13.0,-999,-99.99,,,-99.99,,2013-02-22 01:52:00,
2013-02-21 21:02:00,34.0,-99.9,30.30,NNW,338,7.0,13.0,-999,-99.99,,,-99.99,,2013-02-22 02:02:00,
2013-02-21 21:11:00,34.0,-99.9,30.30,North,-999,-999.0,-999.0,-999,-99.99,,,-99.99,,2013-02-22 02:11:00,
2013-02-21 21:22:00,-999.0,-99.9,30.30,NNW,328,13.0,15.0,-999,-99.99,,,-99.99,,2013-02-22 02:22:00,
2013-02-21 21:32:00,34.0,-99.9,30.31,NW,323,10.0,16.0,-999,-99.99,,,-99.99,,2013-02-22 02:32:00,
2013-02-21 21:42:00,33.0,-99.9,30.31,NW,325,11.0,15.0,-999,-99.99,,,-99.99,,2013-02-22 02:42:00,
2013-02-21 21:52:00,34.0,-99.9,30.31,North,-999,-999.0,-999.0,-999,-99.99,,,-99.99,,2013-02-22 02:52:00,
2013-02-21 22:02:00,33.0,-99.9,30.31,WNW,300,8.0,13.0,-999,-99.99,,,-99.99,,2013-02-22 03:02:00,
2013-02-21 22:11:00,33.0,-99.9,30.32,North,-999,-999.0,-999.0,-999,-99.99,,,-99.99,,2013-02-22 03:11:00,
2013-02-21 22:22:00,33.0,-99.9,30.32,North,-999,-999.0,-999.0,-999,-99.99,,,-99.99,,2013-02-22 03:22:00,
2013-02-21 22:32:00,33.0,-99.9,30.33,WNW,301,5.0,7.0,-999,-99.99,,,-99.99,,2013-02-22 03:32:00,
2013-02-21 22:42:00,-999.0,-99.9,30.33,WNW,298,6.0,6.0,-999,-99.99,,,-99.99,,2013-02-22 03:42:00,
2013-02-21 22:52:00,-999.0,-99.9,30.33,NW,306,8.0,10.0,-999,-99.99,,,-99.99,,2013-02-22 03:52:00,
2013-02-21 23:02:00,33.0,-99.9,30.32,NW,313,7.0,11.0,-999,-99.99,,,-99.99,,2013-02-22 04:02:00,
2013-02-21 23:11:00,-999.0,-99.9,30.32,NNW,328,7.0,8.0,-999,-99.99,,,-99.99,,2013-02-22 04:11:00,
2013-02-21 23:22:00,33.0,-99.9,30.33,North,-999,-999.0,-999.0,-999,-99.99,,,-99.99,,2013-02-22 04:22:00,
2013-02-21 23:32:00,33.0,-99.9,30.33,NNW,346,3.0,8.0,-999,-99.99,,,-99.99,,2013-02-22 04:32:00,
2013-02-21 23:42:00,-999.0,-99.9,30.33,North,355,5.0,8.0,-999,-99.99,,,-99.99,,2013-02-22 04:42:00,
2013-02-21 23:52:00,33.0,-99.9,30.32,North,-999,-999.0,-999.0,-999,-99.99,,,-99.99,,2013-02-22 04:52:00,